Regional Weather Roundup
Issued by NWS

Home | Current Version | Previous Version | Graphics & Text | Print | Product List | Glossary On
Versions: 1 2 3 4 5 6 7 8 9 10 11 12 13 14 15 16 17 18 19 20 21 22 23 24 25 26 27 28 29 30 31 32 33 34 35 36 37 38 39 40 41 42 43 44 45 46 47 48 49 50
000
ASUS43 KFSD 190010
RWRSD

WEATHER ROUNDUP FOR SOUTH DAKOTA
NATIONAL WEATHER SERVICE SIOUX FALLS SD
600 PM CST WED JAN 18 2017

NOTE: "FAIR" INDICATES FEW OR NO CLOUDS BELOW 12,000 FEET WITH NO
SIGNIFICANT WEATHER AND/OR OBSTRUCTIONS TO VISIBILITY.


SDZ001>005-009-010-012>017-190100-
NORTHWEST AND NORTH CENTRAL SOUTH DAKOTA

CITY           SKY/WX    TMP DP  RH WIND       PRES   REMARKS
BUFFALO          N/A     36  26  67 SW7       29.56F
FAITH            N/A     27  20  75 SW5       29.63F WCI  22
MOBRIDGE       CLOUDY    25  18  74 SE14      29.64F WCI  13
$$

SDZ012>016-024>037-041>051-057-063-072>074-190100-
SOUTHWEST AND SOUTH CENTRAL SOUTH DAKOTA

CITY           SKY/WX    TMP DP  RH WIND       PRES   REMARKS
RAPID CTY ARPT CLOUDY    32  24  72 SE3       29.62F
PIERRE         CLOUDY    27  21  78 NE5       29.68S WCI  22
CUSTER         CLOUDY    44  18  35 SW6       29.69S
ELLSWORTH AFB  CLOUDY    36  27  69 SE3       29.61F
PHILIP         CLOUDY    29  24  82 NE3       29.65F
PINE RIDGE     CLOUDY    43  27  53 S5        29.67F
SPEARFISH      FAIR      41  28  60 W5        29.63F
WINNER         FAIR      43  26  51 SE10      29.69F
$$

SDZ004>011-016>023-039-040-190100-
NORTHEAST SOUTH DAKOTA

CITY           SKY/WX    TMP DP  RH WIND       PRES   REMARKS
ABERDEEN       CLOUDY    24  19  81 S6        29.73R WCI  17
WATERTOWN      CLOUDY    31  26  82 S10       29.75S WCI  22
BROOKINGS      CLOUDY    34  31  88 SE9       29.77S WCI  27
SISSETON         N/A     35  29  78 SE6       29.71F
$$

SDZ017-020-022-023-036>040-048>070-190100-
SOUTHEAST SOUTH DAKOTA

CITY           SKY/WX    TMP DP  RH WIND       PRES   REMARKS
SIOUX FALLS    PTCLDY    41  38  89 S10       29.80S
HURON          CLOUDY    32  28  85 E3        29.73F
CHAMBERLAIN    CLOUDY    40  31  71 E5        29.69F
MITCHELL       CLEAR     40  33  76 SE7       29.74F
YANKTON        CLEAR     41  36  81 SE6       29.79S
$$

ABBREVIATIONS USED IN REMARKS
   TC - TEMPERATURE IN CELSIUS
  WCI - WIND CHILL INDEX
   HX - HEAT INDEX
  VSB - VISIBILITY




USA.gov is the U.S. government's official web portal to all federal, state and local government web resources and services.